CAPE
0 0 0 0 0 0 0 0 0 0 0 0 0 0 0 0 148 694 806 749 136 52
0 0 1 2 2 1 2 0 0 0 0 0 0 0 0 0 0 313 458 469 151 26
0 0 0 2 2 2 1 4 4 3 3 3 3 1 0 0 0 1 241 155 54 3
1 2 1 1 1 1 2 1 1 5 7 4 1 3 2 0 0 0 21 1 2 2
1 3 1 2 0 0 0 3 3 4 5 3 0 0 6 0 0 1 0 1 4 3
0 0 1 1 2 3 4 2 1 2 3 3 3 1 1 9 0 1 2 2 3 4
5 0 2 4 4 3 3 3 1 2 1 1 2 3 0 7 0 0 6 1 2 2
6 3 5 1 3 2 0 4 6 3 4 4 1 2 1 1 8 0 18 5 1 2
5 4 0 2 1 2 1 3 3 2 3 4 4 1 0 2 5 5 33 5 2 1
3 5 2 0 1 1 1 2 1 2 2 4 4 3 2 1 3 7 5 25 2 2
3 2 4 2 1 0 0 0 1 1 1 1 2 3 4 0 3 2 5 2 1 1
6 1 3 0 1 1 0 0 1 2 1 2 3 3 4 0 1 4 16 1 2 1
3 1 1 1 2 4 5 2 6 1 1 2 3 2 2 1 3 2 0 0 0 0
1 2 2 3 1 6 2 0 3 3 1 2 2 3 2 3 2 2 4 3 3 1
CIN
0 0 0 0 0 0 0 0 0 0 0 0 0 0 0 0 -324 -107 -74 -76 -364 -428
0 0 0 0 0 0 -1 0 0 0 0 0 0 0 0 0 0 -204 -155 -142 -346 -498
0 0 -1 0 0 0 0 0 0 0 0 0 0 0 0 0 0 0 -246 -264 -374 0
-1 -1 0 0 0 0 0 0 0 0 0 0 0 0 -1 0 0 0 -179 0 0 0
0 -1 0 0 0 0 0 0 0 0 0 0 0 0 0 -1 0 0 -1 0 0 0
-1 0 0 0 0 0 0 0 0 0 0 0 0 0 0 0 0 0 0 0 0 0
-1 0 0 0 0 0 0 0 0 0 0 0 0 0 0 0 0 0 -5 0 0 0
-1 0 0 0 0 0 0 0 0 0 0 0 0 0 0 0 0 0 0 -9 0 0
-1 -1 0 0 0 0 0 0 0 0 0 0 0 0 0 0 0 0 0 -20 0 0
0 -1 0 0 0 0 0 0 0 0 0 0 0 0 0 0 0 0 0 -9 0 0
-1 -1 0 0 0 0 0 0 0 0 0 0 0 0 0 0 0 0 0 0 0 0
0 0 0 0 0 0 0 0 0 0 0 0 0 0 0 0 -22 -3 -11 0 0 0
0 0 0 0 0 0 0 0 0 0 0 0 0 0 0 0 0 0 0 0 0 0
0 0 -1 0 0 0 0 0 0 0 0 0 0 0 0 0 0 0 0 0 0 0
Wind_Speed
42 42 42 43 45 44 46 45 45 44 44 45 45 43 43 44 42 34 29 26 25 26
43 44 45 45 44 44 46 47 48 48 47 46 45 43 42 42 42 40 33 30 26 26
45 46 47 47 47 48 49 50 51 51 49 48 47 46 46 44 42 42 34 32 28 25
46 47 48 49 49 50 52 52 53 53 52 51 51 48 48 47 45 42 34 30 27 24
48 50 51 50 51 51 53 53 54 54 55 55 54 51 50 49 46 43 35 31 28 26
51 49 52 51 52 51 53 53 54 54 55 55 53 52 50 49 48 48 38 34 30 26
50 50 51 51 51 51 52 53 53 54 54 55 54 51 49 49 49 47 40 37 33 30
48 50 51 51 51 51 50 51 52 53 54 55 50 47 46 47 48 47 44 39 36 33
46 49 51 52 51 50 50 51 50 51 52 53 50 47 46 45 46 45 44 41 38 35
45 47 50 52 51 51 51 50 51 51 51 51 50 51 51 45 44 45 45 40 38 35
44 46 49 51 52 51 50 51 51 52 52 50 49 53 50 42 39 40 42 36 36 36
42 44 47 50 51 52 51 50 51 52 52 51 49 50 46 34 34 36 30 28 30 32
41 42 44 46 48 51 50 51 49 52 51 50 49 45 38 23 18 16 17 18 22 24
41 40 41 43 44 49 51 51 50 49 48 47 46 40 32 21 12 12 10 12 20 17
Wind_Direction
322 320 317 314 311 308 305 305 304 303 301 298 295 293 290 289 288 286 282 279 277 277
324 321 318 316 314 312 309 306 303 301 300 298 297 295 292 288 286 285 279 277 274 277
324 322 319 316 313 311 309 306 304 301 299 297 295 293 290 289 288 285 275 277 273 272
324 322 319 317 314 311 309 306 303 301 297 295 292 290 288 286 285 283 273 273 268 263
328 325 323 319 316 314 310 308 305 301 298 294 291 288 285 283 281 279 267 264 264 260
335 331 328 325 322 318 315 311 309 305 300 296 293 288 283 281 279 277 262 258 257 253
337 336 333 330 327 323 320 316 313 309 305 300 295 289 284 279 277 273 260 256 254 245
340 342 339 337 333 329 326 323 318 313 310 308 298 292 286 280 274 269 262 253 250 243
345 345 346 343 340 338 334 331 327 323 317 312 309 296 288 280 274 269 263 250 247 244
346 346 348 347 344 341 338 337 335 331 325 319 313 309 294 282 272 267 263 250 243 241
350 348 351 348 347 344 343 342 341 339 334 327 322 315 302 285 272 264 261 244 238 235
356 357 357 355 353 349 346 347 347 343 340 336 331 322 312 292 273 263 252 240 236 232
359 1 0 2 1 349 348 355 353 354 350 345 342 335 329 314 282 255 247 246 239 232
1 3 3 5 8 5 1 2 358 354 354 350 348 342 339 337 303 271 249 247 235 229